Regional Weather Roundup
Issued by NWS Goodland, KS

Home | Current Version | Previous Version | Text Only | Print | Product List | Glossary Off
Versions: 1 2 3 4 5 6 7 8 9 10 11 12 13 14 15 16 17 18 19 20 21 22 23 24 25 26 27 28 29 30 31 32 33 34 35 36 37 38 39 40 41 42 43 44 45 46 47 48 49 50

000
ASUS43 KGLD 280659
RWRGLD

GOODLAND FORECAST AREA HOURLY WEATHER ROUNDUP
NATIONAL WEATHER SERVICE GOODLAND KS
100 AM MDT WED SEP 28 2016

...OFFICIAL OBSERVATIONS...

CITY           SKY/WX    TMP DP  RH WIND       PRES   REMARKS
GOODLAND KS    CLEAR     49  39  68 W6        30.09R
HILL CITY KS   CLEAR     56  46  69 W5        30.01R
IMPERIAL NEB   CLEAR     54  37  52 NW5       30.09R
MCCOOK NEB     CLEAR     50  42  74 W5        30.05R
AKRON CO       CLEAR     62  28  27 SE6       30.17S
BURLINGTON CO  CLEAR     50  40  68 W7        30.13S
LIMON CO       CLOUDY    43  24  47 CALM      30.21S
$$

...UNOFFICIAL OBSERVATIONS...

CITY           SKY/WX    TMP DP  RH WIND       PRES   REMARKS
COLBY KS       CLEAR     54  41  62 W8        30.07S
LENORA KS        N/A     60  32  34 MISG        N/A
NORTON KS      CLEAR     57  39  51 NW7       30.01
SHARON SPRINGS   N/A     53  40  61 NW7         N/A
KIT CARSON CO    N/A     51  35  55 MISG        N/A
$$




USA.gov is the U.S. government's official web portal to all federal, state and local government web resources and services.